Tracking 29932 objects as of 3-Dec-2024
HD Live streaming from Space Station
objects crossing your sky now

IRIDIUM 33 DEB

Track IRIDIUM 33 DEB now!
10-day predictions


NORAD ID: 33874
Int'l Code: 1997-051AT
Perigee: 632.0 km
Apogee: 658.1 km
Inclination: 86.3 °
Period: 97.5 minutes
Semi major axis: 7016 km
RCS: 0.1107 m2 (medium)
Launch date: September 14, 1997
Source: United States (US)
Launch site: TYURATAM MISSILE AND SPACE COMPLEX (TTMTR)

Note: This is SATELLITE DEBRIS
Your satellite tracking list
Your tracking list is empty




NASA's NSSDC Master Catalog

Two Line Element Set (TLE):
1 33874U 97051AT  24338.01515613  .00069351  00000-0  96600-2 0  9996
2 33874  86.2786 177.9061 0018586 141.4008   9.8355 14.77283279824465
Source of the keplerian elements: AFSPC